Time,TemperatureF,DewpointF,PressureIn,WindDirection,WindDirectionDegrees,WindSpeedMPH,WindSpeedGustMPH,Humidity,HourlyPrecipIn,Conditions,Clouds,dailyrainin,SolarRadiationWatts/m^2,SoftwareType,DateUTC
2013-04-24 00:12:00,33.0,19.0,-100.00,East,100,5.0,8.0,55,-99.99,,,0.00,0.000000,,2013-04-24 06:12:00,
2013-04-24 01:11:00,33.0,17.0,-100.00,ESE,106,6.0,8.0,50,-99.99,,,0.00,0.000000,,2013-04-24 07:11:00,
2013-04-24 02:11:00,29.0,17.0,-100.00,East,92,4.0,10.0,59,-99.99,,,0.00,0.000000,,2013-04-24 08:11:00,
2013-04-24 03:11:00,28.0,18.0,-100.00,NNE,22,1.0,3.0,65,-99.99,,,0.00,0.000000,,2013-04-24 09:11:00,
2013-04-24 04:12:00,26.0,17.0,-100.00,North,8,0.0,2.0,67,-99.99,,,0.00,0.000000,,2013-04-24 10:12:00,
2013-04-24 05:11:00,26.0,15.0,-100.00,ENE,59,2.0,4.0,63,-99.99,,,0.00,0.000000,,2013-04-24 11:11:00,
2013-04-24 06:11:00,23.0,15.0,-100.00,ENE,71,6.0,7.0,70,-99.99,,,0.00,0.000000,,2013-04-24 12:11:00,
2013-04-24 07:12:00,24.0,16.0,-100.00,ESE,107,0.0,2.0,70,-99.99,,,0.00,0.120000,,2013-04-24 13:12:00,
2013-04-24 09:11:00,30.0,21.0,-100.00,NE,55,0.0,2.0,67,-99.99,,,0.00,280.440002,,2013-04-24 15:11:00,
2013-04-24 10:12:00,37.0,23.0,-100.00,NNE,33,2.0,6.0,55,-99.99,,,0.00,361.329987,,2013-04-24 16:12:00,
2013-04-24 11:12:00,44.0,18.0,-100.00,NNE,25,9.0,14.0,34,-99.99,,,0.00,695.929993,,2013-04-24 17:12:00,
2013-04-24 13:11:00,48.0,13.0,-100.00,NNE,25,6.0,11.0,23,-99.99,,,0.00,963.460022,,2013-04-24 19:11:00,
2013-04-24 14:11:00,50.0,15.0,-100.00,West,270,4.0,10.0,23,-99.99,,,0.00,1012.280029,,2013-04-24 20:11:00,
2013-04-24 15:11:00,52.0,15.0,-100.00,West,281,5.0,9.0,22,-99.99,,,0.00,999.489990,,2013-04-24 21:11:00,
2013-04-24 16:12:00,53.0,13.0,-100.00,North,356,4.0,10.0,20,-99.99,,,0.00,930.919983,,2013-04-24 22:12:00,
2013-04-24 17:12:00,55.0,14.0,-100.00,West,276,6.0,18.0,19,-99.99,,,-99.99,808.659973,,2013-04-24 23:12:00,
2013-04-24 18:12:00,55.0,2.0,-100.00,West,278,7.0,13.0,11,-99.99,,,-99.99,644.789978,,2013-04-25 00:12:00,
2013-04-24 19:11:00,56.0,12.0,-100.00,SW,236,7.0,13.0,17,-99.99,,,-99.99,435.359985,,2013-04-25 01:11:00,
2013-04-24 20:11:00,55.0,9.0,-100.00,WSW,243,5.0,9.0,15,-99.99,,,0.00,219.660004,,2013-04-25 02:11:00,
2013-04-24 21:11:00,48.0,21.0,-100.00,South,177,4.0,5.0,33,-99.99,,,0.00,25.340000,,2013-04-25 03:11:00,
2013-04-24 22:43:00,34.0,21.0,-100.00,ESE,115,4.0,5.0,59,-99.99,,,0.00,0.000000,,2013-04-25 04:43:00,
2013-04-24 22:52:00,34.0,21.0,-100.00,ESE,115,4.0,5.0,59,-99.99,,,0.00,0.000000,,2013-04-25 04:52:00,